Вернуться в каталог

DELTA 1 DEB

АктивенSSO
NORAD 13565·DEBRIS·🇺🇸 United States

Запущен Mar 5, 1978 с Vandenberg Space Force Base

Loading…

Ближайшие Пролёты (ближайшие 24 часа)

TLE

СвежийSource: Space-Track

Эпоха: Sep 13, 2026, 08:39 UTC

1 13565U 78026FC  26256.36063317  .00000044  00000-0  61059-4 0  9996
2 13565  98.8698 210.3062 0067846  68.5267  83.1352 13.96665920249104

Отслеживайте DELTA 1 DEB в реальном времени с AllMySat

Download on the App Store